Temperature
3 3 2 2 1 1 1 -0 -2 -3 -2 -1 -1 1 1 1 1 0 0 0 -0 -1 -1 -1 -1 -1 -1 -1 -1 -1 -1 -1 -2 -2 -2 -2 -2 -1
3 2 2 2 1 1 -0 -1 -2 -3 -3 -2 -1 -1 -1 -1 -0 -1 -1 -1 -1 -1 -2 -2 -2 -2 -2 -2 -2 -2 -2 -2 -2 -2 -2 -2 -2 -2
2 2 1 1 1 0 -0 -1 -2 -3 -4 -2 -2 -2 -2 -2 -2 -2 -2 -2 -2 -2 -3 -3 -3 -3 -3 -3 -3 -3 -2 -3 -3 -3 -3 -3 -2 -2
1 1 1 0 0 -0 -1 -1 -2 -3 -3 -3 -3 -3 -3 -3 -2 -3 -3 -3 -3 -3 -3 -3 -4 -4 -3 -3 -3 -3 -3 -3 -3 -3 -3 -3 -3 -3
0 0 0 -0 -1 -1 -1 -2 -2 -3 -4 -4 -4 -4 -4 -4 -4 -4 -4 -4 -4 -4 -4 -4 -4 -4 -4 -4 -4 -4 -4 -4 -4 -4 -4 -4 -4 -4
-1 -1 -1 -1 -1 -1 -2 -2 -2 -3 -4 -5 -5 -5 -5 -5 -5 -5 -5 -5 -5 -5 -5 -5 -5 -5 -4 -4 -4 -4 -4 -4 -4 -4 -4 -4 -4 -4
-1 -1 -1 -2 -2 -2 -2 -2 -3 -3 -4 -5 -5 -5 -6 -6 -6 -5 -6 -5 -5 -5 -5 -5 -5 -5 -5 -4 -4 -5 -5 -5 -5 -5 -5 -5 -5 -5
-2 -2 -2 -2 -2 -2 -3 -3 -3 -3 -4 -5 -5 -5 -5 -6 -6 -6 -6 -7 -7 -6 -6 -6 -5 -5 -5 -5 -5 -5 -5 -5 -5 -5 -5 -5 -5 -5
-3 -3 -3 -3 -3 -3 -3 -3 -3 -3 -4 -4 -4 -5 -5 -5 -5 -6 -6 -7 -6 -6 -6 -6 -6 -6 -5 -5 -5 -5 -5 -5 -5 -5 -5 -6 -6 -6
-3 -3 -3 -3 -3 -3 -4 -4 -4 -4 -4 -4 -4 -4 -4 -5 -5 -5 -5 -6 -6 -7 -7 -7 -6 -6 -6 -6 -6 -6 -6 -6 -6 -6 -6 -6 -6 -6
-3 -3 -4 -4 -3 -4 -4 -4 -4 -4 -4 -4 -4 -4 -5 -5 -5 -6 -6 -7 -7 -7 -7 -7 -7 -6 -6 -6 -6 -6 -6 -6 -6 -6 -7 -7 -7 -7
-4 -4 -4 -4 -4 -4 -4 -4 -5 -4 -4 -4 -5 -5 -5 -5 -5 -6 -6 -7 -7 -7 -7 -7 -7 -7 -8 -7 -6 -6 -6 -7 -7 -7 -7 -7 -7 -7
-4 -4 -4 -4 -4 -4 -4 -4 -5 -5 -5 -5 -5 -5 -5 -5 -6 -6 -6 -6 -7 -7 -6 -7 -7 -8 -8 -8 -7 -7 -7 -7 -7 -7 -7 -7 -7 -8
-4 -4 -4 -4 -4 -4 -5 -5 -5 -5 -5 -5 -5 -6 -6 -6 -6 -6 -6 -6 -6 -7 -7 -7 -7 -7 -8 -8 -8 -8 -7 -8 -8 -8 -7 -7 -8 -8
-5 -5 -5 -5 -5 -5 -5 -5 -5 -5 -5 -5 -6 -6 -6 -6 -6 -6 -6 -7 -7 -7 -7 -7 -7 -8 -8 -8 -8 -8 -8 -8 -8 -8 -8 -8 -8 -9
-5 -5 -5 -5 -5 -5 -5 -5 -5 -5 -5 -6 -6 -6 -6 -6 -6 -6 -7 -7 -7 -7 -7 -8 -8 -8 -8 -9 -9 -9 -9 -9 -9 -8 -9 -9 -9 -9
-5 -5 -5 -6 -6 -6 -6 -6 -6 -6 -6 -6 -6 -6 -6 -7 -7 -7 -7 -7 -8 -8 -8 -8 -8 -8 -9 -9 -10 -9 -9 -9 -9 -9 -10 -10 -10 -10
-6 -6 -6 -6 -6 -6 -6 -6 -6 -6 -6 -6 -6 -7 -7 -7 -7 -7 -7 -8 -8 -8 -8 -8 -9 -9 -10 -10 -9 -10 -10 -10 -10 -10 -10 -11 -11 -10
-6 -6 -6 -6 -6 -7 -7 -7 -7 -7 -7 -7 -7 -7 -7 -7 -7 -8 -8 -8 -9 -9 -9 -9 -9 -10 -11 -11 -10 -10 -10 -10 -10 -11 -11 -11 -11 -11
-6 -6 -6 -7 -7 -7 -7 -7 -7 -7 -7 -7 -7 -7 -8 -8 -8 -8 -8 -9 -9 -9 -9 -9 -10 -10 -11 -11 -11 -10 -10 -11 -11 -11 -11 -11 -12 -11
-7 -7 -7 -7 -7 -7 -7 -7 -7 -7 -7 -8 -8 -8 -8 -8 -8 -8 -9 -9 -9 -10 -10 -10 -9 -10 -11 -12 -12 -11 -10 -10 -11 -12 -12 -12 -12 -12
-7 -7 -7 -7 -7 -8 -8 -8 -8 -8 -8 -8 -8 -8 -8 -8 -8 -9 -9 -9 -10 -10 -10 -10 -10 -11 -11 -12 -12 -11 -11 -11 -11 -11 -12 -12 -12 -12
-8 -8 -8 -8 -8 -8 -8 -8 -8 -8 -8 -8 -8 -8 -8 -9 -9 -9 -9 -10 -10 -10 -10 -11 -11 -11 -11 -12 -12 -12 -12 -11 -12 -12 -11 -11 -11 -11
Wind_Speed
18 19 19 16 15 15 15 14 14 13 13 9 9 10 14 17 24 22 22 28 31 32 32 32 31 31 30 29 28 28 27 26 26 25 26 26 26 25
15 17 19 16 15 15 15 15 16 17 15 6 9 8 11 13 23 21 21 28 31 31 31 31 31 31 30 29 29 28 28 27 27 27 27 27 27 27
16 17 20 17 16 15 14 15 16 16 22 16 7 9 12 12 12 14 19 19 20 29 30 31 31 31 30 30 29 29 29 29 28 28 28 28 27 27
17 17 19 16 18 16 15 17 17 17 19 23 10 9 13 12 12 11 11 15 15 25 29 30 30 30 30 30 29 29 29 29 29 29 28 28 28 28
16 16 18 16 18 16 17 17 16 16 17 19 17 9 9 8 9 10 10 9 12 20 26 29 30 30 30 30 29 29 29 29 29 29 28 28 29 29
15 16 16 16 18 18 17 18 16 16 16 17 16 10 9 7 9 10 10 10 12 13 19 22 25 29 29 29 30 29 29 29 29 29 29 28 29 29
15 15 16 20 23 20 16 15 15 16 15 16 16 12 11 8 10 9 13 10 11 11 10 11 11 11 13 23 27 28 29 29 28 28 28 28 28 29
14 14 15 19 23 28 30 28 23 18 17 17 16 16 14 13 11 12 12 11 10 8 11 12 10 11 10 11 23 27 28 28 28 28 28 28 28 29
13 12 12 13 19 14 20 26 26 30 28 19 18 17 14 13 14 14 13 11 12 8 9 11 10 12 10 16 25 28 28 28 27 27 28 28 29 30
12 12 13 13 13 14 13 14 15 16 19 18 16 15 14 12 14 15 14 13 9 7 9 8 8 10 11 10 23 27 28 28 28 28 28 29 29 30
11 11 12 13 19 22 15 14 14 13 19 24 23 21 24 24 18 12 12 11 10 10 10 8 6 7 8 9 15 25 27 27 27 28 28 28 28 28
10 10 17 17 20 21 14 12 14 12 11 11 14 17 16 19 25 17 14 12 7 7 9 9 7 6 6 7 10 10 14 22 26 27 27 28 28 18
10 9 9 19 21 21 18 11 15 12 9 10 9 8 8 9 10 12 12 12 10 7 8 10 8 8 7 4 5 8 10 10 11 15 22 26 27 22
10 8 10 18 19 19 14 14 18 14 7 8 8 8 8 9 8 9 10 11 10 9 9 10 8 8 8 7 6 5 7 8 10 11 10 19 22 27
9 15 17 19 17 13 15 17 13 8 6 7 8 9 8 7 7 6 7 8 9 8 9 10 9 8 9 9 7 6 6 7 10 11 11 12 12 12
10 13 17 16 12 11 11 10 6 6 7 7 7 7 6 6 7 7 7 7 7 7 9 11 12 11 10 10 9 9 8 6 7 10 11 11 12 12
10 7 6 5 6 5 5 5 5 5 7 6 6 6 7 8 7 7 7 7 8 8 7 7 8 8 10 9 10 11 10 10 10 10 11 13 13 14
12 7 7 6 7 6 6 5 5 6 6 6 6 7 8 8 8 7 6 8 9 8 8 7 6 5 5 8 14 12 11 11 10 11 12 14 15 13
9 7 6 6 6 5 5 5 5 5 5 6 6 6 7 7 7 7 8 8 9 9 8 7 8 9 10 11 9 16 13 11 11 11 12 14 16 14
6 6 6 6 5 5 5 5 5 5 5 5 6 6 7 7 7 8 8 9 9 9 8 8 9 11 13 11 8 8 16 13 11 13 12 13 15 19
7 7 6 6 5 5 5 5 5 5 6 6 6 7 7 7 8 8 9 13 11 9 10 10 11 15 8 6 8 8 9 17 18 14 13 13 14 14
8 7 6 5 5 5 5 5 5 5 6 6 6 7 7 7 8 9 9 9 9 9 10 8 6 7 7 10 13 12 10 10 16 24 24 22 14 13
7 6 6 5 5 4 4 5 5 5 5 6 6 6 7 7 7 8 9 9 8 9 8 7 6 7 9 10 11 11 12 12 10 11 14 22 28 31
Wind_Direction
237 236 236 238 233 232 231 229 239 259 262 219 211 215 219 222 229 230 228 235 240 241 241 240 240 241 242 243 245 247 249 250 252 254 256 258 260 262
239 238 238 239 236 232 231 230 229 240 259 233 209 199 210 221 229 228 226 234 239 242 243 243 241 241 241 242 243 245 247 249 251 253 254 256 257 259
244 241 241 237 237 234 231 231 231 231 248 255 210 202 204 217 227 224 223 229 235 241 243 243 243 242 241 241 243 245 247 249 250 252 254 256 258 260
248 244 245 241 237 236 232 232 232 229 237 253 241 209 212 213 218 221 221 224 225 237 243 244 244 243 242 242 243 245 247 249 250 252 254 256 258 260
252 247 247 242 242 238 234 234 233 232 233 244 249 221 218 213 215 223 224 224 225 234 241 245 245 244 244 244 244 245 247 248 250 251 253 256 257 259
255 251 249 243 243 240 238 236 233 233 232 238 245 232 221 200 206 218 227 223 230 230 236 239 242 244 245 245 245 246 247 248 249 251 252 254 256 258
258 253 250 249 248 246 243 238 231 232 233 236 241 237 225 205 212 209 225 224 227 222 226 232 236 237 240 245 245 247 246 247 248 251 253 254 255 256
261 257 254 258 259 259 255 248 235 229 229 231 235 234 229 218 212 212 218 222 231 208 217 229 223 231 231 232 242 245 246 247 249 250 252 253 255 257
261 261 262 258 261 253 257 258 253 243 232 227 232 232 225 215 210 214 214 214 223 200 199 226 219 228 228 233 239 242 245 247 249 251 252 253 256 258
262 259 261 261 256 254 248 248 248 249 245 237 230 228 224 216 210 214 216 221 226 209 195 220 216 226 228 226 239 242 244 246 248 250 253 255 257 259
265 259 259 257 261 263 257 249 249 247 250 247 239 231 227 225 215 211 213 216 226 220 204 212 215 220 225 228 234 241 244 245 248 251 253 255 257 259
272 263 266 266 266 265 255 246 248 246 237 243 246 243 233 229 225 213 208 212 212 213 198 200 203 195 227 227 225 230 240 246 248 251 253 255 257 259
278 273 264 271 271 269 262 248 248 245 231 228 231 231 226 223 224 218 207 209 209 210 190 187 197 197 212 223 220 220 223 232 243 251 254 254 255 255
281 276 271 277 274 271 267 258 255 251 230 219 222 224 223 222 218 214 209 210 213 210 189 184 197 200 211 228 238 222 219 224 232 241 243 252 256 257
283 282 283 284 282 274 270 267 260 245 224 219 220 222 218 213 205 206 209 213 217 215 203 194 201 205 212 227 235 233 233 233 232 238 241 243 245 249
289 286 287 287 283 274 270 270 255 236 227 222 217 216 204 201 206 205 208 206 217 226 215 207 207 207 219 228 233 240 232 230 224 231 239 245 245 244
291 282 276 277 271 262 256 254 245 238 240 223 214 211 207 206 209 203 203 202 211 219 219 212 213 217 223 224 236 240 240 242 240 238 242 249 248 245
299 286 276 268 267 262 255 248 238 234 233 226 216 212 210 207 208 203 203 207 217 222 220 209 199 213 235 243 231 239 240 243 242 239 241 251 256 250
297 285 277 270 267 261 251 246 242 236 228 223 219 216 211 208 208 208 208 213 221 224 221 207 202 211 234 250 236 224 231 240 243 243 243 247 255 258
292 286 281 274 266 261 253 249 243 235 230 227 222 217 212 210 211 211 211 214 221 224 224 215 212 216 227 243 249 239 236 238 244 249 251 253 257 261
292 285 277 270 266 261 256 250 243 238 234 228 224 220 214 213 216 216 216 224 225 224 228 228 225 230 236 242 255 252 243 243 244 250 253 258 262 261
288 283 277 271 265 261 259 254 247 241 235 233 230 223 217 215 219 219 219 222 224 226 232 237 224 223 224 238 251 259 260 253 253 255 254 252 253 253
290 283 277 271 266 263 259 254 249 247 240 234 230 224 218 219 221 221 221 223 225 229 234 240 234 227 233 240 251 258 261 262 262 262 260 257 256 258
Height
1421 1419 1417 1416 1416 1415 1415 1416 1416 1409 1402 1402 1407 1409 1414 1416 1418 1420 1421 1424 1426 1428 1431 1434 1436 1439 1441 1444 1446 1449 1451 1453 1455 1457 1458 1460 1462 1464
1409 1407 1405 1404 1403 1403 1403 1403 1403 1401 1393 1388 1393 1397 1402 1404 1407 1408 1409 1412 1414 1417 1419 1422 1425 1428 1430 1433 1435 1438 1440 1443 1445 1447 1449 1451 1453 1454
1398 1395 1393 1392 1391 1390 1390 1390 1390 1389 1384 1377 1383 1386 1389 1392 1395 1397 1398 1400 1402 1405 1408 1410 1413 1416 1419 1422 1424 1427 1430 1432 1434 1436 1439 1441 1443 1445
1385 1384 1381 1381 1379 1378 1378 1377 1376 1376 1375 1369 1370 1374 1376 1380 1383 1386 1387 1389 1391 1393 1396 1399 1402 1405 1408 1411 1413 1416 1418 1421 1423 1426 1428 1430 1432 1434
1374 1371 1369 1369 1366 1366 1365 1364 1363 1364 1363 1361 1358 1363 1365 1368 1371 1373 1375 1377 1379 1382 1384 1387 1390 1393 1396 1399 1402 1405 1407 1410 1412 1415 1417 1419 1421 1423
1362 1360 1358 1356 1354 1354 1353 1351 1352 1352 1352 1350 1349 1351 1354 1356 1359 1361 1363 1365 1368 1371 1372 1375 1378 1381 1385 1388 1391 1394 1396 1399 1401 1404 1406 1408 1410 1412
1350 1348 1346 1345 1343 1342 1340 1339 1339 1339 1340 1339 1338 1340 1342 1345 1345 1348 1351 1354 1356 1359 1361 1364 1367 1369 1373 1376 1380 1382 1385 1388 1390 1393 1395 1397 1399 1401
1339 1336 1335 1333 1332 1330 1330 1329 1328 1327 1327 1328 1327 1328 1329 1333 1336 1339 1341 1344 1345 1348 1351 1352 1356 1358 1361 1365 1368 1371 1374 1377 1379 1382 1384 1386 1388 1389
1329 1326 1324 1322 1321 1319 1318 1317 1317 1317 1316 1316 1315 1315 1319 1323 1327 1329 1331 1332 1334 1338 1341 1342 1346 1347 1351 1354 1358 1361 1363 1366 1369 1371 1373 1375 1376 1378
1319 1317 1314 1311 1310 1309 1306 1305 1305 1305 1307 1307 1305 1307 1311 1314 1317 1320 1322 1324 1327 1330 1332 1333 1336 1338 1342 1344 1347 1350 1352 1355 1358 1360 1362 1364 1365 1366
1309 1307 1305 1302 1300 1299 1297 1295 1294 1294 1296 1297 1298 1300 1302 1305 1308 1311 1313 1316 1317 1319 1322 1325 1326 1330 1332 1334 1337 1340 1342 1345 1347 1349 1351 1352 1353 1354
1300 1298 1296 1293 1291 1290 1289 1287 1286 1285 1287 1288 1290 1291 1294 1296 1299 1301 1303 1306 1307 1310 1312 1316 1318 1322 1322 1323 1326 1329 1331 1334 1336 1338 1339 1340 1341 1342
1292 1289 1287 1285 1283 1282 1281 1279 1278 1279 1279 1280 1281 1283 1285 1287 1290 1293 1294 1296 1299 1301 1304 1308 1310 1312 1314 1314 1315 1318 1320 1322 1324 1325 1326 1328 1329 1330
1285 1282 1279 1277 1276 1274 1273 1272 1272 1272 1272 1272 1273 1275 1277 1279 1282 1285 1287 1289 1291 1294 1297 1300 1301 1304 1305 1305 1306 1307 1309 1311 1312 1313 1313 1314 1315 1316
1278 1275 1272 1270 1268 1267 1266 1266 1266 1265 1265 1265 1266 1268 1270 1272 1275 1277 1280 1282 1284 1286 1289 1291 1293 1295 1296 1296 1296 1298 1299 1299 1301 1301 1302 1302 1302 1302
1271 1268 1265 1263 1261 1260 1259 1259 1258 1258 1258 1259 1260 1261 1264 1266 1268 1270 1272 1274 1276 1278 1280 1282 1284 1286 1286 1287 1288 1287 1288 1288 1288 1290 1290 1289 1289 1289
1265 1261 1258 1256 1254 1253 1252 1252 1252 1252 1252 1253 1254 1255 1257 1258 1260 1262 1264 1266 1267 1269 1271 1273 1275 1276 1277 1278 1277 1276 1277 1277 1278 1279 1278 1276 1275 1275
1259 1254 1252 1250 1248 1247 1246 1245 1245 1245 1246 1247 1247 1248 1250 1251 1253 1255 1257 1258 1259 1260 1262 1264 1266 1267 1267 1266 1267 1266 1266 1266 1267 1268 1267 1264 1261 1261
1252 1249 1246 1244 1243 1241 1240 1240 1239 1239 1240 1240 1241 1242 1243 1244 1246 1247 1249 1250 1251 1252 1253 1255 1257 1257 1257 1254 1254 1257 1256 1256 1256 1255 1254 1252 1249 1247
1247 1244 1241 1239 1237 1236 1235 1234 1234 1234 1234 1234 1235 1235 1237 1237 1238 1239 1240 1241 1242 1244 1245 1246 1247 1247 1246 1245 1244 1245 1247 1246 1245 1243 1242 1240 1237 1236
1241 1238 1236 1234 1232 1231 1229 1229 1228 1228 1228 1228 1228 1229 1230 1231 1231 1232 1233 1233 1234 1235 1235 1235 1237 1239 1238 1238 1236 1233 1234 1236 1235 1233 1231 1229 1226 1223
1236 1233 1231 1229 1227 1226 1225 1224 1223 1222 1222 1222 1222 1223 1223 1223 1223 1224 1225 1225 1226 1226 1226 1227 1229 1230 1229 1228 1225 1223 1223 1223 1223 1222 1220 1218 1215 1210
1231 1229 1226 1224 1223 1221 1220 1219 1218 1217 1217 1217 1216 1216 1216 1216 1216 1217 1217 1218 1218 1218 1218 1219 1219 1220 1219 1218 1216 1214 1213 1212 1210 1208 1205 1204 1203 1200